Location: Eckley Miners' Village
(40.9930°N, 75.8630°W)
Time: 09:41:22
(UTC-05:00)

Explorer 7 - All Passes

Search period start: 10 December 2025 00:00
Search period end: 20 December 2025 00:00
Orbit: 436 x 554 km, 50.3° (Epoch: 10 December)

Date Brightness Start Highest point End Pass type
(mag) Time Alt. Az. Time Alt. Az. Time Alt. Az.
10 Dec - 00:50:07 10° WNW 00:53:33 53° SW 00:57:04 10° SE night (unlit)
10 Dec - 17:50:33 10° SW 17:54:02 55° SE 17:57:27 10° ENE visible
10 Dec - 19:29:39 10° W 19:32:45 28° NNW 19:35:49 10° NE visible
10 Dec - 21:09:41 10° NW 21:12:06 17° N 21:14:31 10° NE night (unlit)
10 Dec - 22:48:21 10° NW 22:51:27 29° NNE 22:54:34 10° E night (unlit)
11 Dec - 00:26:44 10° WNW 00:30:09 53° SW 00:33:39 10° SE night (unlit)
11 Dec - 17:27:07 10° SW 17:30:37 55° SE 17:34:03 10° ENE visible
11 Dec - 19:06:13 10° W 19:09:19 29° NNW 19:12:25 10° NE visible
11 Dec - 20:46:15 10° NW 20:48:41 17° N 20:51:06 10° NE night (unlit)
11 Dec - 22:24:57 10° NW 22:28:02 29° NNE 22:31:08 10° E night (unlit)
12 Dec - 00:03:18 10° WNW 00:06:44 53° SW 00:10:12 10° SE night (unlit)
12 Dec - 17:03:39 10° SW 17:07:10 55° SE 17:10:37 10° ENE visible
12 Dec - 18:42:45 10° W 18:45:53 29° NNW 18:48:58 10° NE visible
12 Dec - 20:22:48 10° NW 20:25:13 17° N 20:27:38 10° NE night (unlit)
12 Dec - 22:01:30 10° NW 22:04:34 29° NNE 22:07:40 10° E night (unlit)
12 Dec - 23:39:52 10° WNW 23:43:16 54° SW 23:46:44 10° SE night (unlit)
13 Dec - 16:40:09 10° SW 16:43:41 55° SE 16:47:08 10° ENE daylight
13 Dec - 18:19:15 10° W 18:22:24 29° NNW 18:25:29 10° NE visible
13 Dec - 19:59:18 10° NW 20:01:44 17° N 20:04:09 10° NE visible
13 Dec - 21:38:01 10° NW 21:41:05 29° NNE 21:44:10 10° E night (unlit)
13 Dec - 23:16:23 10° WNW 23:19:46 54° SW 23:23:14 10° SE night (unlit)
14 Dec - 16:16:37 10° SW 16:20:11 55° SE 16:23:39 10° ENE daylight
14 Dec - 17:55:43 10° W 17:58:53 29° NNW 18:01:59 10° NE visible
14 Dec - 19:35:47 10° NW 19:38:13 17° N 19:40:39 10° NE visible
14 Dec - 21:14:29 10° NW 21:17:34 28° NNE 21:20:39 10° E night (unlit)
14 Dec - 22:52:52 10° WNW 22:56:16 54° SW 22:59:42 10° SE night (unlit)
15 Dec - 15:53:03 10° SW 15:56:38 54° SE 16:00:06 10° ENE daylight
15 Dec - 17:32:08 10° W 17:35:20 29° NNW 17:38:27 10° NE visible
15 Dec - 19:12:13 10° NW 19:14:40 18° N 19:17:06 10° NE visible
15 Dec - 20:50:57 10° NW 20:54:01 28° NNE 20:57:05 10° E night (unlit)
15 Dec - 22:29:19 10° WNW 22:32:43 54° SW 22:36:09 10° SE night (unlit)
16 Dec - 15:29:28 10° SW 15:33:03 54° SE 15:36:33 10° ENE daylight
16 Dec - 17:08:32 10° W 17:11:45 30° NNW 17:14:54 10° NE visible
16 Dec - 18:48:38 10° NW 18:51:05 18° N 18:53:32 10° NE visible
16 Dec - 20:27:22 10° NW 20:30:26 28° NNE 20:33:30 10° E night (unlit)
16 Dec - 22:05:44 10° WNW 22:09:08 55° SW 22:12:33 10° SE night (unlit)
17 Dec - 15:05:50 10° SW 15:09:27 54° SE 15:12:57 10° ENE daylight
17 Dec - 16:44:54 10° W 16:48:08 30° NNW 16:51:18 10° NE daylight
17 Dec - 18:25:00 10° NW 18:27:28 18° N 18:29:55 10° NE visible
17 Dec - 20:03:45 10° NW 20:06:50 28° NNE 20:09:53 10° E visible
17 Dec - 21:42:08 10° WNW 21:45:31 55° SW 21:48:56 10° SE night (unlit)
18 Dec - 14:42:10 10° SW 14:45:49 53° SE 14:49:19 10° ENE daylight
18 Dec - 16:21:14 10° W 16:24:30 30° NNW 16:27:41 10° NE daylight
18 Dec - 18:01:20 10° NW 18:03:49 18° N 18:06:18 10° NE visible
18 Dec - 19:40:06 10° NW 19:43:11 28° NNE 19:46:14 10° E visible
18 Dec - 21:18:29 10° WNW 21:21:54 56° SW 21:25:17 10° SE night (unlit)
19 Dec - 14:18:28 10° SW 14:22:08 53° SE 14:25:40 10° ENE daylight
19 Dec - 15:57:32 10° W 16:00:49 30° NNW 16:04:01 10° NE daylight
19 Dec - 17:37:38 10° NW 17:40:09 18° N 17:42:38 10° NE visible
19 Dec - 19:16:26 10° NW 19:19:30 28° NNE 19:22:33 10° E visible
19 Dec - 20:54:48 10° WNW 20:58:13 56° SW 21:01:37 10° SE night (unlit)
